Temp
-7 -7 -7 -7 -7 -8 -9 -8 -8 -8 -8 -8 -8 -8 -8 -7 -7 -6 -6 -6 -8 -6 -6 -6 -6 -6 -6 -7 -7 -7 -7 -7 -6 -6 -7 -6 -6 -6 -6 -6 -6 -6 -6 -6 -6 -6 -6 -5 -5
-7 -7 -7 -7 -8 -8 -9 -8 -8 -8 -8 -8 -8 -8 -8 -7 -7 -7 -7 -7 -8 -7 -7 -6 -7 -7 -7 -7 -7 -8 -7 -7 -7 -7 -7 -7 -7 -6 -6 -6 -6 -6 -6 -6 -6 -6 -6 -6 -5
-7 -7 -7 -7 -8 -9 -9 -9 -8 -8 -8 -9 -8 -8 -7 -7 -6 -6 -7 -8 -8 -7 -7 -7 -7 -8 -8 -8 -8 -8 -7 -7 -7 -7 -7 -7 -6 -6 -6 -6 -6 -6 -6 -6 -6 -6 -6 -6 -6
-7 -7 -7 -7 -8 -9 -9 -8 -8 -8 -9 -9 -8 -8 -7 -7 -7 -8 -7 -6 -6 -7 -7 -7 -8 -8 -8 -8 -8 -8 -8 -7 -7 -7 -7 -7 -7 -7 -7 -6 -6 -6 -6 -6 -5 -5 -6 -6 -6
-7 -7 -7 -7 -9 -10 -9 -8 -8 -8 -8 -8 -8 -8 -7 -7 -7 -7 -7 -7 -8 -8 -8 -7 -8 -8 -8 -8 -8 -8 -8 -7 -7 -7 -7 -7 -7 -7 -7 -7 -6 -6 -6 -6 -6 -6 -6 -6 -6
-8 -7 -7 -7 -8 -9 -9 -8 -8 -8 -8 -8 -9 -8 -7 -6 -7 -7 -7 -7 -6 -6 -7 -6 -7 -8 -8 -8 -8 -8 -8 -8 -7 -7 -7 -7 -7 -6 -6 -6 -6 -6 -6 -6 -6 -6 -6 -6 -6
-7 -7 -7 -7 -8 -8 -8 -7 -8 -8 -8 -8 -7 -7 -7 -6 -6 -6 -7 -8 -7 -6 -6 -5 -6 -7 -8 -8 -8 -7 -7 -7 -7 -7 -7 -7 -6 -6 -6 -6 -6 -6 -6 -6 -6 -6 -6 -6 -6
-7 -7 -7 -7 -8 -8 -8 -8 -7 -7 -7 -7 -7 -6 -6 -6 -6 -7 -8 -7 -8 -7 -7 -6 -6 -6 -7 -7 -7 -7 -8 -8 -8 -7 -7 -7 -7 -7 -6 -6 -6 -6 -6 -6 -6 -6 -6 -6 -6
-6 -7 -8 -8 -8 -8 -8 -8 -8 -7 -7 -7 -6 -7 -6 -6 -6 -7 -8 -8 -7 -7 -7 -7 -6 -6 -7 -8 -7 -8 -8 -8 -8 -8 -7 -7 -7 -7 -7 -7 -6 -6 -6 -6 -6 -6 -6 -6 -6
-6 -7 -8 -8 -8 -8 -8 -8 -8 -8 -7 -7 -7 -7 -6 -6 -6 -7 -8 -8 -6 -7 -7 -6 -6 -7 -7 -8 -8 -8 -8 -8 -8 -8 -8 -8 -7 -7 -7 -7 -7 -7 -7 -7 -7 -7 -6 -6 -6
-7 -7 -7 -7 -7 -7 -7 -7 -8 -8 -8 -7 -7 -7 -7 -6 -7 -7 -7 -7 -7 -7 -7 -7 -7 -7 -8 -8 -9 -8 -8 -7 -8 -8 -8 -8 -7 -8 -7 -7 -8 -7 -7 -7 -7 -7 -7 -7 -6
-7 -7 -7 -7 -7 -7 -7 -7 -7 -8 -7 -7 -7 -7 -7 -7 -7 -7 -7 -7 -7 -7 -7 -7 -8 -7 -8 -8 -8 -8 -8 -8 -8 -8 -8 -8 -7 -7 -7 -7 -8 -8 -8 -8 -8 -7 -7 -7 -7
-7 -7 -7 -7 -7 -7 -7 -7 -7 -8 -8 -8 -7 -7 -7 -7 -6 -7 -7 -7 -7 -8 -7 -7 -7 -7 -8 -8 -8 -8 -8 -8 -8 -7 -8 -7 -7 -7 -8 -8 -8 -8 -8 -8 -8 -8 -8 -8 -8
-7 -7 -7 -8 -8 -7 -7 -7 -7 -8 -8 -8 -8 -7 -7 -6 -6 -7 -7 -7 -7 -7 -7 -7 -7 -7 -7 -7 -7 -8 -7 -8 -7 -7 -8 -7 -7 -8 -8 -8 -8 -8 -8 -9 -8 -9 -9 -9 -8
-7 -7 -7 -8 -8 -8 -8 -8 -8 -9 -10 -9 -8 -7 -7 -7 -7 -7 -7 -7 -7 -6 -6 -6 -7 -6 -7 -8 -8 -8 -7 -7 -7 -8 -7 -7 -7 -7 -8 -8 -8 -8 -7 -8 -7 -8 -8 -9 -9
-8 -7 -8 -10 -8 -8 -7 -7 -9 -9 -8 -10 -10 -8 -7 -7 -7 -7 -7 -7 -7 -7 -7 -7 -7 -7 -7 -7 -8 -8 -8 -7 -7 -7 -8 -7 -7 -7 -7 -8 -8 -7 -8 -8 -8 -8 -8 -9 -9
-8 -8 -8 -9 -8 -8 -7 -7 -9 -9 -8 -8 -9 -10 -10 -9 -9 -9 -8 -8 -8 -8 -7 -7 -7 -7 -7 -7 -7 -8 -8 -7 -7 -8 -8 -8 -8 -8 -8 -8 -8 -8 -8 -8 -8 -8 -9 -9 -9
-9 -9 -8 -8 -8 -8 -8 -8 -10 -9 -8 -8 -9 -10 -10 -10 -10 -11 -11 -9 -9 -8 -8 -8 -8 -8 -8 -7 -7 -7 -7 -7 -8 -8 -8 -8 -8 -8 -8 -8 -8 -8 -8 -8 -8 -8 -8 -9 -10
-9 -9 -9 -9 -9 -9 -9 -9 -9 -10 -10 -9 -9 -10 -10 -10 -11 -11 -11 -9 -9 -9 -9 -8 -8 -8 -8 -8 -8 -8 -7 -7 -8 -8 -8 -8 -8 -8 -8 -8 -8 -8 -8 -8 -8 -8 -9 -9 -10
-9 -10 -10 -10 -10 -10 -10 -9 -9 -9 -10 -10 -10 -10 -10 -11 -10 -10 -10 -10 -10 -9 -9 -9 -9 -9 -9 -9 -9 -8 -8 -8 -8 -9 -9 -9 -9 -8 -8 -8 -8 -8 -8 -8 -8 -9 -9 -9 -9
-10 -10 -10 -10 -10 -10 -10 -9 -9 -10 -10 -10 -11 -11 -11 -11 -10 -10 -10 -10 -9 -9 -9 -9 -10 -10 -10 -10 -10 -10 -9 -9 -9 -9 -9 -9 -9 -9 -9 -9 -9 -9 -9 -8 -9 -9 -9 -9 -10
-11 -11 -10 -10 -10 -10 -10 -9 -10 -10 -11 -12 -11 -11 -10 -10 -10 -10 -10 -10 -10 -10 -9 -10 -10 -9 -10 -10 -10 -10 -10 -10 -10 -10 -10 -10 -10 -9 -9 -9 -9 -9 -9 -9 -9 -9 -9 -10 -10
-11 -12 -11 -11 -11 -11 -11 -11 -10 -11 -12 -12 -12 -11 -11 -11 -10 -10 -9 -10 -10 -10 -10 -10 -11 -10 -10 -10 -10 -10 -10 -10 -10 -10 -10 -10 -10 -10 -10 -10 -10 -9 -9 -10 -10 -10 -10 -10 -10
-13 -13 -12 -11 -11 -11 -11 -11 -11 -11 -11 -11 -11 -11 -11 -11 -11 -10 -10 -10 -10 -11 -11 -11 -11 -11 -12 -11 -11 -11 -10 -10 -10 -10 -10 -10 -11 -10 -10 -10 -10 -10 -10 -10 -10 -10 -10 -11 -11
-14 -14 -13 -12 -12 -11 -12 -12 -12 -11 -12 -11 -11 -11 -11 -11 -11 -11 -11 -11 -11 -12 -12 -13 -12 -13 -13 -12 -12 -12 -11 -10 -10 -10 -10 -10 -11 -11 -11 -11 -11 -10 -10 -11 -11 -11 -11 -11 -11
-14 -14 -14 -13 -13 -12 -13 -13 -12 -13 -13 -13 -12 -12 -12 -12 -12 -12 -12 -11 -12 -12 -11 -12 -13 -12 -12 -12 -12 -12 -11 -11 -10 -11 -11 -11 -11 -11 -11 -11 -11 -11 -11 -11 -11 -11 -11 -11 -11
-14 -14 -14 -14 -14 -14 -14 -13 -14 -13 -13 -13 -13 -13 -12 -12 -12 -12 -12 -13 -13 -13 -12 -12 -12 -12 -12 -12 -12 -12 -12 -11 -11 -11 -11 -11 -11 -11 -11 -11 -12 -12 -12 -11 -11 -11 -11 -11 -11
-15 -15 -15 -15 -15 -14 -14 -15 -14 -14 -14 -14 -14 -13 -13 -13 -13 -13 -13 -12 -13 -13 -13 -13 -13 -12 -13 -13 -12 -13 -12 -12 -12 -11 -12 -12 -12 -12 -12 -12 -12 -12 -12 -12 -12 -12 -12 -11 -11
-15 -15 -15 -15 -15 -15 -15 -14 -14 -14 -14 -14 -14 -14 -14 -13 -13 -13 -14 -14 -13 -13 -13 -14 -13 -13 -13 -13 -12 -12 -13 -13 -12 -12 -12 -12 -12 -12 -12 -13 -12 -12 -12 -12 -12 -12 -12 -12 -12
-15 -15 -16 -15 -16 -16 -16 -14 -14 -14 -14 -14 -14 -14 -14 -14 -15 -14 -14 -14 -15 -15 -15 -14 -14 -13 -14 -13 -13 -13 -14 -14 -13 -14 -13 -13 -13 -13 -13 -13 -13 -13 -12 -12 -13 -12 -12 -12 -12
Height
5888 5890 5893 5896 5900 5898 5895 5895 5895 5897 5899 5902 5901 5903 5903 5902 5903 5901 5897 5896 5899 5909 5911 5909 5909 5910 5911 5912 5913 5915 5916 5918 5918 5917 5918 5917 5917 5918 5918 5917 5917 5916 5916 5916 5915 5914 5913 5912 5912
5887 5889 5893 5895 5898 5897 5895 5894 5894 5896 5898 5900 5901 5902 5903 5902 5903 5900 5892 5894 5900 5908 5911 5910 5908 5910 5911 5913 5914 5914 5915 5916 5917 5917 5917 5918 5918 5918 5918 5918 5917 5916 5915 5915 5914 5914 5912 5911 5911
5886 5889 5892 5894 5896 5895 5893 5892 5894 5894 5895 5897 5898 5899 5903 5904 5904 5904 5904 5902 5904 5905 5910 5909 5908 5910 5910 5912 5914 5915 5915 5915 5916 5917 5917 5917 5918 5917 5916 5916 5916 5916 5916 5916 5915 5914 5913 5910 5910
5885 5889 5892 5893 5894 5891 5892 5892 5891 5891 5892 5894 5896 5897 5903 5904 5903 5905 5905 5905 5906 5907 5910 5910 5910 5910 5912 5911 5913 5914 5915 5916 5916 5917 5917 5917 5917 5918 5917 5916 5916 5915 5915 5915 5915 5914 5912 5910 5908
5884 5887 5890 5892 5891 5889 5892 5890 5889 5890 5890 5891 5893 5897 5901 5903 5905 5906 5907 5908 5907 5908 5909 5908 5907 5910 5911 5913 5913 5913 5914 5916 5916 5916 5916 5916 5917 5917 5916 5916 5916 5914 5913 5912 5912 5912 5911 5910 5907
5881 5886 5889 5890 5889 5886 5887 5886 5887 5889 5889 5890 5893 5896 5900 5901 5905 5904 5906 5908 5908 5909 5909 5907 5905 5907 5909 5910 5912 5912 5912 5914 5915 5916 5915 5914 5915 5915 5915 5914 5914 5913 5911 5910 5910 5910 5910 5909 5906
5878 5883 5886 5887 5885 5884 5885 5885 5884 5887 5888 5888 5892 5896 5898 5900 5901 5901 5901 5905 5907 5907 5907 5908 5906 5907 5907 5906 5909 5910 5910 5911 5912 5913 5914 5913 5912 5911 5911 5911 5911 5910 5908 5907 5907 5907 5907 5908 5906
5875 5879 5884 5885 5882 5884 5884 5881 5881 5884 5886 5888 5891 5892 5894 5897 5899 5899 5900 5901 5903 5905 5906 5905 5905 5905 5904 5905 5906 5907 5909 5910 5910 5911 5911 5910 5910 5910 5908 5907 5907 5906 5905 5905 5904 5904 5903 5903 5904
5874 5877 5880 5882 5881 5883 5880 5877 5879 5881 5883 5886 5888 5888 5891 5893 5895 5896 5898 5901 5904 5903 5903 5903 5904 5903 5903 5902 5904 5905 5905 5905 5905 5905 5905 5905 5905 5906 5905 5904 5903 5903 5902 5901 5900 5900 5900 5900 5900
5873 5875 5875 5876 5876 5878 5876 5875 5875 5877 5878 5883 5886 5884 5886 5889 5892 5893 5895 5899 5900 5897 5897 5898 5900 5900 5900 5899 5899 5901 5900 5900 5900 5900 5900 5899 5899 5900 5899 5898 5898 5898 5898 5897 5897 5895 5895 5895 5896
5870 5871 5870 5871 5872 5874 5873 5874 5872 5871 5872 5879 5881 5881 5882 5884 5886 5888 5891 5892 5892 5892 5891 5893 5895 5895 5895 5896 5895 5895 5896 5896 5895 5894 5895 5894 5894 5894 5894 5892 5893 5893 5893 5892 5891 5890 5890 5889 5889
5866 5866 5867 5868 5869 5870 5869 5871 5870 5867 5868 5874 5877 5878 5879 5879 5883 5885 5885 5885 5885 5886 5889 5890 5891 5892 5890 5891 5891 5891 5891 5891 5891 5890 5889 5890 5891 5889 5889 5888 5887 5888 5888 5886 5886 5885 5884 5884 5883
5863 5863 5864 5865 5866 5866 5866 5866 5866 5865 5864 5866 5872 5873 5875 5876 5877 5881 5881 5881 5881 5882 5884 5885 5886 5887 5887 5887 5887 5886 5887 5886 5885 5885 5886 5887 5886 5885 5884 5883 5883 5883 5882 5881 5879 5878 5877 5876 5876
5859 5859 5861 5861 5861 5862 5863 5863 5864 5864 5859 5859 5864 5867 5869 5869 5873 5875 5876 5876 5878 5879 5879 5881 5881 5882 5884 5883 5882 5881 5881 5881 5882 5882 5882 5882 5882 5882 5881 5879 5878 5878 5876 5874 5873 5871 5870 5870 5869
5853 5855 5856 5856 5856 5856 5856 5860 5860 5861 5856 5852 5854 5858 5863 5862 5866 5870 5871 5870 5871 5872 5872 5874 5875 5875 5877 5877 5876 5876 5877 5878 5879 5880 5879 5879 5879 5879 5876 5874 5873 5871 5869 5867 5867 5865 5864 5864 5865
5846 5848 5850 5847 5848 5848 5849 5856 5854 5851 5849 5851 5848 5849 5853 5854 5855 5860 5863 5866 5866 5866 5868 5869 5870 5871 5871 5871 5871 5873 5874 5875 5876 5877 5876 5877 5876 5874 5874 5871 5868 5866 5865 5865 5862 5861 5860 5860 5861
5839 5841 5840 5841 5840 5840 5845 5849 5846 5845 5845 5845 5847 5846 5845 5846 5844 5847 5853 5857 5858 5860 5862 5864 5864 5864 5864 5866 5868 5868 5869 5871 5872 5872 5872 5872 5870 5869 5868 5867 5865 5863 5861 5860 5859 5857 5856 5856 5856
5830 5832 5833 5834 5834 5835 5837 5842 5841 5839 5840 5841 5841 5842 5842 5843 5844 5844 5843 5848 5852 5852 5853 5854 5857 5858 5858 5860 5863 5864 5865 5865 5866 5866 5865 5864 5863 5862 5862 5862 5861 5859 5857 5857 5854 5853 5851 5851 5850
5824 5825 5826 5828 5827 5828 5830 5834 5835 5835 5835 5836 5836 5836 5836 5837 5837 5837 5836 5837 5842 5845 5847 5849 5849 5851 5853 5854 5855 5856 5856 5857 5857 5858 5857 5857 5857 5856 5857 5857 5856 5855 5854 5853 5850 5848 5847 5847 5846
5817 5817 5820 5820 5821 5822 5824 5827 5827 5827 5827 5830 5830 5829 5831 5830 5831 5831 5831 5830 5833 5836 5838 5840 5842 5842 5842 5843 5843 5846 5848 5850 5849 5849 5849 5849 5850 5850 5850 5850 5849 5849 5849 5848 5846 5845 5845 5844 5842
5810 5812 5813 5813 5813 5814 5816 5820 5820 5820 5821 5823 5822 5820 5819 5820 5822 5823 5825 5824 5824 5827 5830 5830 5832 5833 5833 5833 5833 5836 5839 5842 5842 5841 5840 5842 5842 5843 5843 5843 5842 5842 5842 5842 5842 5841 5841 5839 5837
5802 5804 5805 5805 5804 5807 5807 5810 5812 5813 5814 5812 5810 5812 5813 5814 5816 5816 5816 5817 5816 5818 5820 5821 5822 5825 5825 5825 5825 5826 5829 5832 5833 5834 5834 5834 5835 5836 5836 5837 5838 5837 5837 5837 5836 5836 5835 5834 5832
5794 5795 5795 5797 5798 5798 5800 5800 5800 5804 5806 5804 5804 5804 5805 5806 5807 5809 5811 5811 5811 5810 5812 5812 5813 5814 5815 5814 5815 5815 5819 5823 5825 5827 5829 5827 5828 5829 5830 5830 5830 5830 5830 5831 5831 5831 5829 5827 5826
5785 5787 5788 5790 5791 5791 5793 5792 5796 5797 5796 5794 5794 5794 5796 5797 5799 5801 5802 5803 5803 5802 5802 5804 5805 5805 5806 5807 5807 5808 5809 5811 5814 5818 5820 5820 5819 5822 5823 5824 5824 5825 5826 5826 5824 5823 5822 5822 5821
5779 5780 5781 5781 5781 5783 5783 5786 5786 5787 5785 5785 5787 5787 5788 5788 5790 5792 5793 5793 5794 5795 5795 5796 5796 5796 5797 5798 5798 5798 5799 5800 5803 5806 5809 5812 5812 5813 5815 5816 5816 5817 5819 5820 5819 5819 5819 5818 5816
5772 5773 5773 5770 5773 5775 5774 5772 5776 5777 5772 5775 5776 5778 5779 5780 5780 5782 5783 5785 5786 5785 5785 5786 5786 5787 5789 5790 5791 5792 5792 5793 5794 5797 5799 5802 5804 5805 5806 5809 5809 5810 5811 5813 5812 5813 5813 5812 5812
5767 5766 5766 5763 5762 5761 5764 5767 5764 5766 5763 5764 5766 5768 5769 5769 5770 5772 5773 5774 5776 5777 5777 5776 5777 5778 5779 5782 5784 5784 5784 5784 5786 5788 5789 5791 5793 5795 5797 5800 5802 5803 5804 5805 5806 5807 5807 5808 5807
5758 5760 5759 5756 5753 5750 5750 5752 5752 5753 5754 5754 5753 5754 5757 5758 5759 5760 5762 5764 5765 5766 5767 5767 5767 5768 5769 5771 5771 5771 5772 5773 5775 5776 5778 5780 5782 5784 5787 5789 5791 5794 5796 5797 5798 5799 5799 5800 5800
5748 5747 5748 5746 5745 5739 5738 5739 5740 5741 5740 5740 5741 5743 5745 5746 5748 5750 5750 5751 5752 5752 5754 5755 5757 5758 5760 5760 5760 5760 5762 5762 5764 5764 5766 5768 5770 5772 5776 5779 5781 5783 5786 5788 5790 5791 5792 5792 5792
5736 5734 5735 5733 5732 5731 5729 5728 5728 5727 5727 5726 5726 5727 5729 5732 5734 5735 5736 5737 5737 5739 5740 5741 5743 5745 5745 5747 5750 5750 5749 5749 5750 5754 5757 5755 5758 5762 5765 5768 5769 5772 5774 5776 5777 5779 5781 5783 5784
Wind_Speed
15 16 16 17 17 17 7 7 9 5 5 6 8 10 13 19 27 26 25 21 27 21 16 15 13 9 7 6 4 2 2 4 5 6 6 5 6 8 8 7 8 9 9 10 10 11 12 13 13
15 16 16 16 21 16 12 11 9 10 5 6 10 10 12 15 17 22 11 16 35 19 15 14 12 9 8 6 4 4 4 5 7 8 6 6 7 8 11 12 12 12 10 11 10 11 12 12 11
17 16 18 17 22 17 14 14 13 11 11 9 10 11 8 13 17 15 7 13 22 19 16 12 11 9 8 6 5 3 4 7 7 9 9 10 11 11 12 13 14 15 14 15 15 14 16 12 11
21 18 18 18 20 20 16 13 20 18 9 6 10 13 7 11 16 9 3 8 4 14 13 8 7 9 7 8 7 7 8 9 9 12 14 14 15 15 15 16 16 16 17 16 16 15 14 14 14
25 22 19 19 21 21 21 20 22 21 16 10 12 15 10 7 10 4 6 7 15 14 12 11 10 7 7 9 10 9 10 12 14 16 17 17 20 21 20 20 19 19 19 18 17 16 15 14 15
27 25 21 20 21 25 29 30 24 25 22 16 14 16 14 11 11 13 14 19 17 14 12 14 11 14 14 13 15 15 15 16 19 21 21 21 22 23 23 24 24 23 22 21 21 20 18 16 17
25 28 24 22 23 27 30 34 33 29 28 22 21 19 18 18 16 16 19 19 17 16 22 20 21 20 18 17 19 20 21 21 22 24 25 25 25 26 26 27 28 28 27 25 24 23 22 20 19
20 27 28 26 27 26 28 33 35 33 33 32 30 25 24 21 14 4 3 9 25 28 25 26 22 20 18 19 20 21 20 18 20 22 22 24 26 27 26 26 28 29 29 30 28 27 26 24 22
19 22 29 31 32 29 33 37 35 36 37 35 33 33 25 19 11 9 8 13 15 16 23 21 18 18 18 18 17 22 19 19 20 23 24 22 23 24 26 28 29 29 30 30 30 29 28 27 24
16 19 22 25 31 37 40 40 39 39 41 40 27 24 18 16 11 12 10 13 13 14 16 14 15 17 19 19 15 18 18 23 18 20 25 25 26 27 28 28 31 30 29 30 30 30 30 29 27
13 17 26 27 28 30 34 36 37 37 36 32 16 15 17 16 14 13 12 15 16 14 13 17 16 18 13 15 15 19 19 22 21 19 20 23 21 24 33 32 28 32 30 28 29 30 30 31 31
13 20 22 23 26 27 32 31 33 36 36 29 18 14 16 18 16 13 14 17 17 16 18 20 20 18 14 15 18 18 16 19 20 24 22 26 30 29 27 28 24 27 28 28 29 31 32 33 35
14 16 17 20 20 23 27 30 30 32 34 32 21 19 18 20 21 12 16 18 18 19 19 19 20 17 14 17 18 20 21 20 21 21 21 23 22 22 22 22 27 28 27 27 26 29 33 34 35
22 21 21 20 21 24 25 29 26 28 36 35 26 22 21 23 20 14 16 17 18 18 17 14 16 15 12 15 17 18 18 18 18 18 21 23 20 20 23 23 25 28 24 26 28 23 28 29 31
28 26 25 23 24 25 27 25 19 29 37 38 33 27 23 27 22 18 16 17 18 17 15 12 14 15 10 10 14 16 18 19 19 16 19 21 22 21 22 25 26 25 24 24 27 9 17 27 30
28 28 22 23 28 33 35 28 25 32 35 34 38 35 29 28 27 21 23 18 18 17 17 16 16 17 15 12 14 16 18 20 18 18 20 22 22 20 21 24 24 24 23 17 17 21 23 27 27
28 26 30 30 32 35 33 32 30 32 35 34 30 33 34 30 30 29 26 22 21 21 21 19 18 19 19 16 18 18 20 21 19 21 22 23 22 23 23 23 23 22 17 19 21 20 22 26 30
30 31 35 35 35 34 33 29 25 29 33 32 32 30 29 27 25 30 31 28 25 24 24 23 22 22 24 24 23 23 25 23 21 22 24 23 23 25 24 23 21 17 23 21 19 19 19 23 28
30 30 31 30 32 33 33 30 30 30 31 33 34 28 25 24 26 30 31 32 29 27 28 27 27 27 28 29 27 26 26 24 25 23 25 24 24 26 26 25 23 24 21 20 18 20 17 20 21
32 31 28 29 30 32 32 32 33 34 31 28 24 20 18 20 26 27 28 31 31 30 30 30 29 30 31 32 32 29 28 26 27 27 28 27 27 27 28 27 25 23 22 19 17 18 19 20 22
34 34 32 32 34 33 34 33 33 33 31 27 25 26 27 26 28 30 29 30 32 31 31 31 31 31 32 35 37 34 31 28 28 30 31 30 30 29 28 27 27 25 23 18 17 18 18 19 21
34 35 35 37 38 36 35 34 31 32 33 34 34 33 34 33 32 32 34 33 33 34 33 32 33 33 33 36 39 38 34 31 32 31 32 32 31 30 29 28 27 27 25 18 18 18 18 19 20
37 36 37 33 32 32 31 35 36 32 34 38 40 40 40 39 37 36 35 36 37 37 35 30 29 29 29 33 38 39 36 34 35 33 32 33 33 31 30 30 29 27 24 19 19 18 18 19 21
36 35 34 33 36 37 32 34 31 30 34 37 40 44 43 42 38 35 33 34 40 38 34 32 30 27 25 29 33 37 38 39 36 34 33 34 35 33 32 32 30 29 26 22 21 19 19 21 22
34 35 37 39 40 39 37 34 32 34 36 38 39 40 41 41 39 34 33 34 33 39 30 32 33 30 30 28 30 33 38 40 38 36 36 36 35 35 34 32 32 31 28 24 23 21 21 22 23
39 38 39 43 41 38 35 37 30 27 35 36 35 31 34 41 42 38 32 32 34 37 37 38 38 35 33 32 33 35 41 43 42 40 39 38 38 37 36 33 32 32 31 28 27 25 25 22 22
36 38 40 42 42 41 39 37 39 37 40 38 37 40 37 36 37 37 36 36 34 36 38 42 42 41 41 40 42 46 44 46 46 44 41 40 40 39 37 35 34 33 34 33 32 31 30 26 22
33 34 36 38 43 44 44 44 47 47 47 47 49 47 43 40 41 44 45 42 46 47 48 46 45 45 45 44 46 41 44 46 46 47 43 41 41 42 39 38 38 37 36 36 35 35 34 31 27
34 36 39 42 44 48 51 51 51 53 54 55 56 55 52 48 45 46 48 47 47 49 51 51 53 52 52 54 43 39 45 48 48 49 47 44 45 44 41 40 41 41 39 39 37 37 36 36 33
40 40 43 44 49 53 56 57 57 58 58 60 60 59 58 55 53 52 51 50 52 53 54 54 53 52 51 52 48 46 47 48 46 47 49 44 43 44 44 43 42 42 42 40 40 38 38 37 38
Wind_Direction
201 193 189 180 169 163 196 231 222 242 276 305 322 320 342 348 353 337 319 289 188 178 175 157 147 149 151 146 153 226 281 302 310 316 317 314 313 318 324 321 325 332 334 336 336 333 324 318 317
205 194 189 184 172 168 207 242 242 242 236 276 284 308 320 321 326 4 332 137 161 167 177 164 152 165 169 172 205 213 243 272 285 285 284 293 303 313 319 320 318 318 314 321 327 333 333 317 318
210 202 188 188 177 200 206 239 236 235 223 236 274 285 292 329 340 355 58 129 158 159 170 161 155 167 174 180 184 216 238 247 265 276 275 275 283 288 292 297 304 311 314 318 325 337 340 325 319
211 209 190 191 190 201 213 241 245 248 256 306 295 289 309 328 342 338 247 171 174 173 190 190 170 170 173 179 203 220 244 258 259 266 271 273 278 281 287 290 293 296 302 310 317 324 334 338 316
214 211 198 195 209 213 219 226 243 249 259 285 293 297 294 285 333 29 315 200 174 190 205 186 179 212 216 238 244 242 255 268 270 268 271 278 282 287 291 292 291 291 293 296 302 309 316 324 320
218 213 206 205 215 225 222 228 234 242 253 267 288 281 287 276 297 291 266 245 225 242 228 226 206 219 228 239 253 258 260 263 268 273 275 277 280 283 285 286 285 284 286 290 293 296 300 306 309
219 213 211 209 221 228 231 235 241 240 252 271 276 274 282 285 298 288 262 227 228 240 232 240 229 234 243 247 256 258 257 258 263 267 271 274 276 278 281 282 283 283 282 280 281 286 290 293 297
220 214 214 217 225 235 243 248 250 254 259 265 274 274 276 284 281 249 358 219 239 234 239 257 249 245 255 264 272 275 277 281 282 279 278 280 281 281 282 283 284 283 283 283 281 280 280 282 285
225 220 224 226 235 236 245 251 258 261 265 269 273 279 267 269 277 274 180 203 249 240 249 258 265 264 260 259 276 279 273 279 281 282 278 276 278 282 284 280 278 280 282 284 286 286 285 282 280
232 223 218 225 230 234 242 249 256 261 265 271 278 276 278 269 267 274 261 248 269 254 243 260 276 270 268 265 252 289 257 273 271 275 275 275 276 276 274 273 274 275 276 279 283 285 285 283 280
228 226 226 226 230 235 243 247 255 262 269 278 280 275 278 272 274 273 260 257 260 257 272 274 280 270 260 259 270 263 269 266 256 270 269 277 263 280 280 275 279 272 270 270 271 275 278 279 276
222 233 239 242 244 244 250 251 255 263 270 275 263 257 264 272 272 271 267 264 263 255 250 257 262 268 272 262 260 248 268 261 273 284 269 279 281 288 288 280 279 278 279 271 268 270 272 277 277
243 248 254 252 252 252 252 259 260 264 272 281 267 268 262 263 268 258 262 261 261 256 255 254 249 259 251 246 256 254 271 273 281 283 284 283 288 295 293 280 283 281 281 281 282 283 275 268 272
252 258 262 262 262 263 261 255 266 272 278 282 279 271 268 267 262 252 248 256 252 249 246 238 242 245 225 238 250 258 268 275 278 285 287 289 291 290 290 291 289 288 286 276 294 294 275 267 267
255 254 261 266 265 263 260 262 260 259 262 276 280 273 269 272 270 263 247 252 255 255 257 251 244 250 245 238 245 256 268 272 276 282 278 284 291 294 297 297 297 299 300 298 282 271 272 269 270
258 256 249 236 243 249 257 259 249 249 255 252 264 276 275 274 276 268 264 251 252 255 259 257 258 259 260 254 255 250 256 267 275 275 278 279 281 290 292 294 296 300 296 286 293 297 284 273 278
257 254 248 247 246 248 254 257 244 246 254 258 253 255 265 270 276 276 269 260 255 251 251 253 257 261 265 258 255 256 260 264 269 270 271 275 282 285 287 289 293 289 289 289 285 292 278 271 272
248 248 251 251 252 256 258 253 245 252 252 254 255 253 253 253 257 268 269 262 256 254 258 258 258 258 260 260 258 257 257 263 265 271 276 280 285 285 287 290 289 274 291 288 290 285 285 276 274
252 250 252 254 256 257 258 257 257 248 259 264 256 247 249 250 246 244 251 255 249 249 256 258 257 257 256 259 259 257 262 269 272 274 276 279 280 282 282 284 280 282 283 280 284 290 288 280 276
250 249 250 251 253 259 260 258 259 256 253 263 261 261 257 255 250 250 254 255 257 257 253 253 257 258 262 265 263 260 262 264 270 274 274 279 278 280 282 283 282 280 278 273 276 278 278 277 276
255 259 255 254 251 254 254 253 254 255 256 259 266 268 264 253 247 249 251 257 262 257 256 255 254 254 257 262 264 265 265 267 269 272 276 276 276 278 279 280 282 281 274 270 271 274 279 280 285
256 257 255 252 253 251 252 256 255 256 259 264 264 261 259 257 253 251 254 257 260 263 260 260 257 255 254 257 262 264 266 267 268 269 272 273 274 276 277 276 272 270 268 271 273 274 282 285 287
255 249 251 253 256 257 255 254 255 254 256 259 262 264 266 265 262 262 266 264 259 260 262 260 256 252 256 258 259 263 266 267 267 267 268 269 270 271 273 274 273 269 268 266 266 273 283 290 293
254 257 259 259 260 258 256 256 257 259 257 256 254 258 261 264 267 267 264 263 259 254 254 255 255 256 260 261 259 263 264 263 264 263 263 265 267 267 267 267 266 262 260 260 269 279 287 288 288
253 259 259 260 261 268 269 270 266 266 262 261 258 258 260 261 261 263 269 262 257 254 250 253 252 257 262 264 266 269 268 267 266 265 263 263 263 264 264 264 264 264 261 259 262 269 275 281 287
251 250 254 263 266 268 269 269 268 261 264 259 260 257 258 260 260 261 260 254 259 254 263 254 251 254 259 263 269 270 269 268 266 264 263 261 261 259 260 260 260 261 262 261 260 263 268 274 281
258 256 257 261 268 271 268 263 267 264 266 266 258 265 267 262 257 253 257 260 260 263 268 267 260 256 261 264 274 269 268 266 263 260 259 260 261 261 259 258 254 251 255 257 260 260 263 267 272
269 264 261 260 266 268 267 268 266 266 265 265 266 266 262 257 259 260 270 260 260 261 264 264 262 261 269 274 278 274 263 259 259 259 258 258 259 259 258 256 255 251 249 252 256 259 263 267 270
274 267 261 261 263 268 270 270 267 268 271 272 273 274 274 271 266 263 266 266 263 265 266 262 261 262 265 267 265 263 279 272 265 260 255 255 256 257 259 258 258 256 254 253 255 258 261 264 267
264 259 258 261 263 264 269 271 274 274 272 272 274 275 275 272 273 272 269 267 263 264 262 265 263 262 269 262 263 264 274 262 263 264 261 255 257 259 259 258 260 259 257 257 255 255 256 258 262